Time,TemperatureF,DewpointF,PressureIn,WindDirection,WindDirectionDegrees,WindSpeedMPH,WindSpeedGustMPH,Humidity,HourlyPrecipIn,Conditions,Clouds,dailyrainin,SoftwareType,DateUTC
2013-03-22 00:02:00,35.0,20.0,29.99,ENE,62,0.0,2.0,53,0.00,,,0.00,,2013-03-22 05:02:00,
2013-03-22 00:12:00,35.0,20.0,29.99,ENE,62,0.0,2.0,53,0.00,,,0.00,,2013-03-22 05:12:00,
2013-03-22 00:22:00,35.0,19.0,29.99,ENE,72,0.0,3.0,52,0.00,,,0.00,,2013-03-22 05:22:00,
2013-03-22 00:32:00,34.0,18.0,29.98,ENE,72,0.0,3.0,52,0.00,,,0.00,,2013-03-22 05:32:00,
2013-03-22 00:42:00,34.0,18.0,29.98,ENE,72,0.0,3.0,52,0.00,,,0.00,,2013-03-22 05:42:00,
2013-03-22 00:52:00,34.0,19.0,29.98,East,96,1.0,5.0,53,0.00,,,0.00,,2013-03-22 05:52:00,
2013-03-22 01:02:00,34.0,19.0,29.98,East,96,0.0,4.0,53,0.00,,,0.00,,2013-03-22 06:02:00,
2013-03-22 01:12:00,34.0,19.0,29.98,East,96,0.0,4.0,53,0.00,,,0.00,,2013-03-22 06:12:00,
2013-03-22 01:22:00,34.0,18.0,29.98,East,98,1.0,6.0,52,0.00,,,0.00,,2013-03-22 06:22:00,
2013-03-22 01:32:00,34.0,18.0,29.98,East,90,1.0,6.0,52,0.00,,,0.00,,2013-03-22 06:32:00,
2013-03-22 01:42:00,34.0,18.0,29.98,East,90,1.0,6.0,52,0.00,,,0.00,,2013-03-22 06:42:00,
2013-03-22 01:52:00,34.0,19.0,29.98,East,80,1.0,3.0,53,0.00,,,0.00,,2013-03-22 06:52:00,
2013-03-22 02:02:00,34.0,19.0,29.98,East,90,0.0,5.0,53,0.00,,,0.00,,2013-03-22 07:02:00,
2013-03-22 02:12:00,34.0,19.0,29.98,East,90,0.0,5.0,53,0.00,,,0.00,,2013-03-22 07:12:00,
2013-03-22 02:22:00,34.0,19.0,29.98,East,80,0.0,4.0,54,0.00,,,0.00,,2013-03-22 07:22:00,
2013-03-22 02:32:00,34.0,19.0,29.98,East,91,1.0,7.0,54,0.00,,,0.00,,2013-03-22 07:32:00,
2013-03-22 02:42:00,34.0,19.0,29.98,East,91,1.0,7.0,54,0.00,,,0.00,,2013-03-22 07:42:00,
2013-03-22 02:52:00,34.0,20.0,29.98,East,96,0.0,5.0,55,0.00,,,0.00,,2013-03-22 07:52:00,
2013-03-22 03:03:00,34.0,19.0,29.98,East,87,1.0,6.0,54,0.00,,,0.00,,2013-03-22 08:03:00,
2013-03-22 03:12:00,34.0,19.0,29.98,East,87,1.0,6.0,54,0.00,,,0.00,,2013-03-22 08:12:00,
2013-03-22 03:22:00,34.0,20.0,29.97,East,94,1.0,7.0,55,0.00,,,0.00,,2013-03-22 08:22:00,
2013-03-22 03:32:00,34.0,20.0,29.97,East,93,2.0,8.0,55,0.00,,,0.00,,2013-03-22 08:32:00,
2013-03-22 03:42:00,34.0,20.0,29.97,East,93,2.0,8.0,55,0.00,,,0.00,,2013-03-22 08:42:00,
2013-03-22 03:52:00,34.0,20.0,29.97,East,94,1.0,5.0,55,0.00,,,0.00,,2013-03-22 08:52:00,
2013-03-22 04:02:00,34.0,20.0,29.96,East,86,1.0,5.0,55,0.00,,,0.00,,2013-03-22 09:02:00,
2013-03-22 04:12:00,34.0,20.0,29.96,East,86,1.0,5.0,55,0.00,,,0.00,,2013-03-22 09:12:00,
2013-03-22 04:22:00,34.0,20.0,29.96,East,81,0.0,4.0,55,0.00,,,0.00,,2013-03-22 09:22:00,
2013-03-22 04:32:00,34.0,19.0,29.96,East,80,0.0,3.0,54,0.00,,,0.00,,2013-03-22 09:32:00,
2013-03-22 04:42:00,34.0,19.0,29.96,East,80,0.0,3.0,54,0.00,,,0.00,,2013-03-22 09:42:00,
2013-03-22 04:53:00,34.0,18.0,29.96,East,98,0.0,5.0,52,0.00,,,0.00,,2013-03-22 09:53:00,
2013-03-22 05:03:00,34.0,19.0,29.95,East,84,0.0,3.0,53,0.00,,,0.00,,2013-03-22 10:03:00,
2013-03-22 05:12:00,34.0,19.0,29.95,East,84,0.0,3.0,53,0.00,,,0.00,,2013-03-22 10:12:00,
2013-03-22 05:22:00,34.0,18.0,29.95,East,90,0.0,3.0,52,0.00,,,0.00,,2013-03-22 10:22:00,
2013-03-22 05:32:00,34.0,18.0,29.95,ESE,102,1.0,6.0,52,0.00,,,0.00,,2013-03-22 10:32:00,
2013-03-22 05:42:00,34.0,18.0,29.95,ESE,102,1.0,6.0,52,0.00,,,0.00,,2013-03-22 10:42:00,
2013-03-22 05:52:00,34.0,18.0,29.96,East,98,0.0,3.0,52,0.00,,,0.00,,2013-03-22 10:52:00,
2013-03-22 06:03:00,34.0,18.0,29.96,East,96,0.0,3.0,52,0.00,,,0.00,,2013-03-22 11:03:00,
2013-03-22 06:12:00,34.0,18.0,29.96,East,96,0.0,3.0,52,0.00,,,0.00,,2013-03-22 11:12:00,
2013-03-22 06:22:00,34.0,18.0,29.96,East,80,0.0,4.0,52,0.00,,,0.00,,2013-03-22 11:22:00,
2013-03-22 06:32:00,34.0,18.0,29.96,ESE,103,0.0,6.0,51,0.00,,,0.00,,2013-03-22 11:32:00,
2013-03-22 06:42:00,34.0,18.0,29.96,ESE,103,0.0,6.0,51,0.00,,,0.00,,2013-03-22 11:42:00,
2013-03-22 06:52:00,34.0,19.0,29.97,East,92,0.0,3.0,53,0.00,,,0.00,,2013-03-22 11:52:00,
2013-03-22 07:02:00,34.0,18.0,29.97,ESE,103,1.0,5.0,51,0.00,,,0.00,,2013-03-22 12:02:00,
2013-03-22 07:12:00,34.0,18.0,29.97,ESE,104,0.0,6.0,52,0.00,,,0.00,,2013-03-22 12:12:00,
2013-03-22 07:22:00,34.0,18.0,29.97,ESE,104,0.0,6.0,52,0.00,,,0.00,,2013-03-22 12:22:00,
2013-03-22 07:32:00,35.0,20.0,29.97,East,100,0.0,2.0,53,0.00,,,0.00,,2013-03-22 12:32:00,
2013-03-22 07:42:00,35.0,20.0,29.97,East,100,0.0,2.0,53,0.00,,,0.00,,2013-03-22 12:42:00,
2013-03-22 07:52:00,35.0,19.0,29.97,ESE,104,1.0,6.0,52,0.00,,,0.00,,2013-03-22 12:52:00,
2013-03-22 08:02:00,35.0,19.0,29.98,East,100,0.0,2.0,52,0.00,,,0.00,,2013-03-22 13:02:00,
2013-03-22 08:12:00,35.0,19.0,29.98,East,100,0.0,2.0,52,0.00,,,0.00,,2013-03-22 13:12:00,
2013-03-22 08:22:00,35.0,19.0,29.98,ESE,105,0.0,5.0,52,0.00,,,0.00,,2013-03-22 13:22:00,
2013-03-22 08:32:00,35.0,19.0,29.98,East,101,1.0,5.0,52,0.00,,,0.00,,2013-03-22 13:32:00,
2013-03-22 08:42:00,35.0,19.0,29.98,East,101,1.0,5.0,52,0.00,,,0.00,,2013-03-22 13:42:00,
2013-03-22 08:52:00,36.0,20.0,29.98,East,96,0.0,3.0,51,0.00,,,0.00,,2013-03-22 13:52:00,
2013-03-22 09:02:00,36.0,19.0,29.98,East,97,0.0,3.0,50,0.00,,,0.00,,2013-03-22 14:02:00,
2013-03-22 09:12:00,36.0,19.0,29.98,East,97,0.0,3.0,50,0.00,,,0.00,,2013-03-22 14:12:00,
2013-03-22 09:22:00,36.0,20.0,29.98,East,99,0.0,5.0,51,0.00,,,0.00,,2013-03-22 14:22:00,
2013-03-22 09:32:00,36.0,20.0,29.98,East,99,1.0,5.0,51,0.00,,,0.00,,2013-03-22 14:32:00,
2013-03-22 09:42:00,36.0,20.0,29.98,East,99,1.0,5.0,51,0.00,,,0.00,,2013-03-22 14:42:00,
2013-03-22 09:52:00,36.0,19.0,29.98,East,94,0.0,2.0,50,0.00,,,0.00,,2013-03-22 14:52:00,
2013-03-22 10:02:00,37.0,21.0,29.98,ENE,68,1.0,5.0,51,0.00,,,0.00,,2013-03-22 15:02:00,
2013-03-22 10:12:00,37.0,21.0,29.98,ENE,68,1.0,5.0,51,0.00,,,0.00,,2013-03-22 15:12:00,
2013-03-22 10:32:00,37.0,20.0,29.98,ESE,110,1.0,7.0,50,0.00,,,0.00,,2013-03-22 15:32:00,
2013-03-22 10:42:00,37.0,20.0,29.98,ESE,110,1.0,7.0,50,0.00,,,0.00,,2013-03-22 15:42:00,
2013-03-22 10:53:00,37.0,20.0,29.98,East,100,1.0,6.0,50,0.00,,,0.00,,2013-03-22 15:53:00,
2013-03-22 11:02:00,38.0,21.0,29.98,ESE,104,1.0,7.0,49,0.00,,,0.00,,2013-03-22 16:02:00,
2013-03-22 11:13:00,38.0,20.0,29.98,ESE,106,1.0,6.0,48,0.00,,,0.00,,2013-03-22 16:13:00,
2013-03-22 11:22:00,38.0,20.0,29.98,ESE,106,1.0,6.0,48,0.00,,,0.00,,2013-03-22 16:22:00,
2013-03-22 11:32:00,38.0,20.0,29.98,ESE,108,1.0,6.0,47,0.00,,,0.00,,2013-03-22 16:32:00,
2013-03-22 11:42:00,39.0,21.0,29.98,ESE,105,1.0,7.0,48,0.00,,,0.00,,2013-03-22 16:42:00,
2013-03-22 11:52:00,39.0,21.0,29.98,ESE,105,1.0,7.0,48,0.00,,,0.00,,2013-03-22 16:52:00,
2013-03-22 12:03:00,40.0,20.0,29.98,East,87,0.0,5.0,45,0.00,,,0.00,,2013-03-22 17:03:00,
2013-03-22 12:12:00,40.0,20.0,29.98,East,92,1.0,6.0,44,0.00,,,0.00,,2013-03-22 17:12:00,
2013-03-22 12:23:00,40.0,20.0,29.98,East,92,1.0,6.0,44,0.00,,,0.00,,2013-03-22 17:23:00,
2013-03-22 12:32:00,40.0,20.0,29.98,East,85,0.0,5.0,45,0.00,,,0.00,,2013-03-22 17:32:00,
2013-03-22 12:42:00,40.0,20.0,29.98,East,85,0.0,5.0,45,0.00,,,0.00,,2013-03-22 17:42:00,
2013-03-22 12:52:00,40.0,20.0,29.98,East,90,1.0,5.0,45,0.00,,,0.00,,2013-03-22 17:52:00,
2013-03-22 13:02:00,40.0,22.0,29.98,ENE,77,0.0,2.0,48,0.00,,,0.00,,2013-03-22 18:02:00,
2013-03-22 13:12:00,40.0,22.0,29.98,ENE,77,0.0,2.0,48,0.00,,,0.00,,2013-03-22 18:12:00,
2013-03-22 13:22:00,40.0,21.0,29.98,East,88,0.0,4.0,47,0.00,,,0.00,,2013-03-22 18:22:00,
2013-03-22 13:32:00,40.0,21.0,29.97,East,89,1.0,3.0,47,0.00,,,0.00,,2013-03-22 18:32:00,
2013-03-22 13:42:00,40.0,21.0,29.97,East,89,1.0,3.0,47,0.00,,,0.00,,2013-03-22 18:42:00,
2013-03-22 13:52:00,41.0,22.0,29.96,East,87,0.0,3.0,46,0.00,,,0.00,,2013-03-22 18:52:00,
2013-03-22 14:02:00,41.0,22.0,29.96,East,97,0.0,3.0,47,0.00,,,0.00,,2013-03-22 19:02:00,
2013-03-22 14:12:00,41.0,22.0,29.96,East,97,0.0,3.0,47,0.00,,,0.00,,2013-03-22 19:12:00,
2013-03-22 14:22:00,42.0,23.0,29.95,ENE,61,1.0,3.0,46,0.00,,,0.00,,2013-03-22 19:22:00,
2013-03-22 14:32:00,42.0,22.0,29.95,NE,55,0.0,3.0,44,0.00,,,0.00,,2013-03-22 19:32:00,
2013-03-22 14:42:00,42.0,22.0,29.95,NE,55,0.0,3.0,44,0.00,,,0.00,,2013-03-22 19:42:00,
2013-03-22 14:52:00,43.0,23.0,29.94,NE,51,0.0,5.0,44,0.00,,,0.00,,2013-03-22 19:52:00,
2013-03-22 15:02:00,43.0,23.0,29.94,ENE,71,0.0,3.0,45,0.00,,,0.00,,2013-03-22 20:02:00,
2013-03-22 15:12:00,43.0,23.0,29.94,ENE,71,0.0,3.0,45,0.00,,,0.00,,2013-03-22 20:12:00,
2013-03-22 15:22:00,43.0,23.0,29.94,ENE,73,0.0,3.0,44,0.00,,,0.00,,2013-03-22 20:22:00,
2013-03-22 15:32:00,43.0,23.0,29.93,ENE,59,0.0,4.0,44,0.00,,,0.00,,2013-03-22 20:32:00,
2013-03-22 15:42:00,43.0,23.0,29.93,ENE,59,0.0,4.0,44,0.00,,,0.00,,2013-03-22 20:42:00,
2013-03-22 15:52:00,43.0,24.0,29.93,ENE,72,1.0,7.0,46,0.00,,,0.00,,2013-03-22 20:52:00,
2013-03-22 16:03:00,44.0,23.0,29.92,East,93,1.0,7.0,44,0.00,,,0.00,,2013-03-22 21:03:00,
2013-03-22 16:12:00,44.0,23.0,29.92,East,99,2.0,7.0,44,0.00,,,0.00,,2013-03-22 21:12:00,
2013-03-22 16:22:00,44.0,23.0,29.92,East,99,2.0,7.0,44,0.00,,,0.00,,2013-03-22 21:22:00,
2013-03-22 16:32:00,44.0,24.0,29.91,East,93,0.0,6.0,45,0.00,,,0.00,,2013-03-22 21:32:00,
2013-03-22 16:42:00,44.0,24.0,29.91,East,93,0.0,6.0,45,0.00,,,0.00,,2013-03-22 21:42:00,
2013-03-22 16:52:00,44.0,24.0,29.91,East,79,0.0,5.0,45,0.00,,,0.00,,2013-03-22 21:52:00,
2013-03-22 17:03:00,44.0,23.0,29.91,East,79,1.0,6.0,44,0.00,,,0.00,,2013-03-22 22:03:00,
2013-03-22 17:12:00,44.0,23.0,29.91,East,79,1.0,6.0,44,0.00,,,0.00,,2013-03-22 22:12:00,
2013-03-22 17:23:00,44.0,24.0,29.92,ENE,61,1.0,6.0,45,0.00,,,0.00,,2013-03-22 22:23:00,
2013-03-22 17:32:00,44.0,24.0,29.92,East,85,0.0,4.0,45,0.00,,,0.00,,2013-03-22 22:32:00,
2013-03-22 17:42:00,44.0,24.0,29.92,East,85,0.0,4.0,45,0.00,,,0.00,,2013-03-22 22:42:00,
2013-03-22 17:53:00,44.0,25.0,29.92,East,83,0.0,4.0,46,0.00,,,0.00,,2013-03-22 22:53:00,
2013-03-22 18:02:00,44.0,25.0,29.92,ENE,64,0.0,5.0,46,0.00,,,0.00,,2013-03-22 23:02:00,
2013-03-22 18:12:00,44.0,25.0,29.92,ENE,64,0.0,5.0,46,0.00,,,0.00,,2013-03-22 23:12:00,
2013-03-22 18:22:00,43.0,24.0,29.93,ENE,60,0.0,5.0,47,0.00,,,0.00,,2013-03-22 23:22:00,
2013-03-22 18:32:00,43.0,24.0,29.93,ENE,61,0.0,5.0,47,0.00,,,0.00,,2013-03-22 23:32:00,
2013-03-22 18:42:00,43.0,24.0,29.93,ENE,61,0.0,5.0,47,0.00,,,0.00,,2013-03-22 23:42:00,
2013-03-22 18:52:00,43.0,25.0,29.93,ENE,70,0.0,2.0,48,0.00,,,0.00,,2013-03-22 23:52:00,
2013-03-22 19:02:00,43.0,25.0,29.93,ENE,59,1.0,4.0,48,0.00,,,0.00,,2013-03-23 00:02:00,
2013-03-22 19:12:00,43.0,25.0,29.93,ENE,59,1.0,4.0,48,0.00,,,0.00,,2013-03-23 00:12:00,
2013-03-22 19:23:00,43.0,25.0,29.93,ENE,69,1.0,3.0,48,0.00,,,0.00,,2013-03-23 00:23:00,
2013-03-22 19:32:00,42.0,24.0,29.93,East,90,0.0,3.0,49,0.00,,,0.00,,2013-03-23 00:32:00,
2013-03-22 19:42:00,42.0,24.0,29.94,ENE,78,0.0,4.0,48,0.00,,,0.00,,2013-03-23 00:42:00,
2013-03-22 19:52:00,42.0,24.0,29.94,ENE,78,0.0,4.0,48,0.00,,,0.00,,2013-03-23 00:52:00,
2013-03-22 20:03:00,42.0,25.0,29.94,ENE,71,1.0,5.0,51,0.00,,,0.00,,2013-03-23 01:03:00,
2013-03-22 20:12:00,42.0,25.0,29.94,ENE,71,1.0,5.0,51,0.00,,,0.00,,2013-03-23 01:12:00,
2013-03-22 20:22:00,42.0,25.0,29.94,ENE,74,0.0,5.0,51,0.00,,,0.00,,2013-03-23 01:22:00,
2013-03-22 20:32:00,42.0,26.0,29.94,East,80,1.0,7.0,52,0.00,,,0.00,,2013-03-23 01:32:00,
2013-03-22 20:42:00,42.0,26.0,29.94,East,80,1.0,7.0,52,0.00,,,0.00,,2013-03-23 01:42:00,
2013-03-22 20:52:00,42.0,25.0,29.94,East,83,1.0,6.0,51,0.00,,,0.00,,2013-03-23 01:52:00,
2013-03-22 21:02:00,42.0,25.0,29.94,East,82,1.0,7.0,51,0.00,,,0.00,,2013-03-23 02:02:00,
2013-03-22 21:12:00,42.0,25.0,29.94,East,82,1.0,7.0,51,0.00,,,0.00,,2013-03-23 02:12:00,
2013-03-22 21:22:00,42.0,25.0,29.95,ENE,72,0.0,3.0,51,0.00,,,0.00,,2013-03-23 02:22:00,
2013-03-22 21:32:00,42.0,25.0,29.95,ENE,73,0.0,5.0,51,0.00,,,0.00,,2013-03-23 02:32:00,
2013-03-22 21:42:00,42.0,25.0,29.95,ENE,73,0.0,5.0,51,0.00,,,0.00,,2013-03-23 02:42:00,
2013-03-22 21:52:00,42.0,25.0,29.95,East,81,1.0,5.0,51,0.00,,,0.00,,2013-03-23 02:52:00,
2013-03-22 22:02:00,42.0,25.0,29.95,East,100,0.0,8.0,51,0.00,,,0.00,,2013-03-23 03:02:00,
2013-03-22 22:12:00,42.0,25.0,29.95,East,100,0.0,8.0,51,0.00,,,0.00,,2013-03-23 03:12:00,
2013-03-22 22:22:00,42.0,25.0,29.95,East,98,0.0,5.0,51,0.00,,,0.00,,2013-03-23 03:22:00,
2013-03-22 22:33:00,42.0,25.0,29.95,East,83,0.0,3.0,51,0.00,,,0.00,,2013-03-23 03:33:00,
2013-03-22 22:43:00,42.0,25.0,29.95,East,83,0.0,3.0,51,0.00,,,0.00,,2013-03-23 03:43:00,
2013-03-22 22:53:00,42.0,25.0,29.95,ENE,74,0.0,3.0,51,0.00,,,0.00,,2013-03-23 03:53:00,
2013-03-22 23:02:00,42.0,25.0,29.96,ENE,66,0.0,5.0,51,0.00,,,0.00,,2013-03-23 04:02:00,
2013-03-22 23:12:00,42.0,25.0,29.96,ENE,66,0.0,5.0,51,0.00,,,0.00,,2013-03-23 04:12:00,
2013-03-22 23:23:00,42.0,26.0,29.95,East,86,0.0,3.0,52,0.00,,,0.00,,2013-03-23 04:23:00,
2013-03-22 23:32:00,41.0,25.0,29.96,ENE,75,0.0,2.0,52,0.00,,,0.00,,2013-03-23 04:32:00,
2013-03-22 23:43:00,41.0,25.0,29.96,ENE,75,0.0,2.0,52,0.00,,,0.00,,2013-03-23 04:43:00,
2013-03-22 23:53:00,41.0,25.0,29.96,ENE,68,0.0,3.0,52,0.00,,,0.00,,2013-03-23 04:53:00,